Location: Unspecified
(0.0000°N, 0.0000°E)
Time: 18:50:48
(UTC+00:00)

SR - All Passes

Search period start: 18 April 2019 00:00
Search period end: 28 April 2019 00:00
Orbit: 584 x 872 km, 66.7° (Epoch: 17 April)

Date Brightness Start Highest point End Pass type
(mag) Time Alt. Az. Time Alt. Az. Time Alt. Az.
18 Apr - 05:10:43 10° NNE 05:14:13 20° ENE 05:17:55 10° ESE visible
18 Apr - 06:52:03 10° WNW 06:56:00 24° WSW 07:00:13 10° SSW daylight
18 Apr - 17:36:27 10° S 17:41:35 52° ESE 17:46:17 10° NE daylight
19 Apr - 06:01:34 10° NNW 06:06:21 63° WSW 06:11:38 10° S daylight
19 Apr - 16:48:08 10° SSE 16:51:57 20° ESE 16:55:32 10° ENE daylight
19 Apr - 18:29:45 10° WSW 18:33:46 23° WNW 18:37:32 10° NNW visible
20 Apr - 05:12:11 10° N 05:16:51 48° ENE 05:21:56 10° SE visible
20 Apr - 17:39:09 10° SSW 17:44:19 62° WNW 17:49:02 10° N daylight
21 Apr - 04:24:05 10° NNE 04:27:25 18° ENE 04:30:56 10° ESE visible
21 Apr - 06:05:04 10° NW 06:09:10 26° WSW 06:13:34 10° SSW daylight
21 Apr - 16:49:43 10° S 16:54:46 48° ESE 16:59:24 10° NE daylight
22 Apr - 05:14:41 10° NNW 05:19:33 68° WSW 05:24:53 10° SSE visible
22 Apr - 16:01:34 10° SSE 16:05:07 18° ESE 16:08:29 10° ENE daylight
22 Apr - 17:42:49 10° SW 17:46:57 25° WNW 17:50:49 10° NNW daylight
23 Apr - 04:25:25 10° N 04:30:03 44° ENE 04:35:06 10° SE visible
23 Apr - 06:10:49 10° W 06:12:03 11° WSW 06:13:19 10° SW daylight
23 Apr - 16:52:20 10° SSW 16:57:30 68° WNW 17:02:13 10° NNE daylight
24 Apr - 03:37:28 10° NNE 03:40:37 17° ENE 03:43:55 10° ESE visible
24 Apr - 05:18:05 10° NW 05:22:21 28° WSW 05:26:55 10° S visible
24 Apr - 16:03:00 10° S 16:07:57 43° ESE 16:12:29 10° NE daylight
25 Apr - 04:27:50 10° NNW 04:32:44 75° WSW 04:38:07 10° SSE visible
25 Apr - 15:15:01 10° SSE 15:18:17 17° ESE 15:21:23 10° ENE daylight
25 Apr - 16:55:53 10° SW 17:00:08 27° WNW 17:04:07 10° NNW daylight
26 Apr - 03:38:38 10° N 03:43:15 41° ENE 03:48:14 10° SE visible
26 Apr - 05:23:18 10° W 05:25:13 12° WSW 05:27:13 10° SW visible
26 Apr - 16:05:31 10° SSW 16:10:41 74° WNW 16:15:24 10° NNE daylight
27 Apr - 02:50:52 10° NE 02:53:48 16° ENE 02:56:53 10° ESE visible
27 Apr - 04:31:08 10° NW 04:35:31 31° WSW 04:40:15 10° S visible
27 Apr - 15:16:17 10° S 15:21:07 40° ESE 15:25:34 10° NE daylight
27 Apr - 17:01:57 10° W 17:02:46 10° WNW 17:03:33 10° WNW daylight
